| time (UTC) | temp F | wind direction | speed MPH | gust MPH | rain 1hr in | rain 24hr in | rain mn in | humidity % | barometer mb |
| 20260505234517 | 56 | 360 | 0.0 | 4.0 | 0.00 | 0.00 | 0.00 | 39 | 1006.7 |
| 20260505233012 | 56 | 65 | 0.0 | 3.0 | 0.00 | 0.00 | 0.00 | 38 | 1006.7 |
| 20260505231512 | 57 | 40 | 1.0 | 7.0 | 0.00 | 0.00 | 0.00 | 38 | 1006.8 |
| 20260505230015 | 57 | 61 | 1.0 | 6.0 | 0.00 | 0.00 | 0.00 | 38 | 1006.9 |
| 20260505224512 | 57 | 74 | 0.0 | 3.0 | 0.00 | 0.01 | 0.00 | 38 | 1007.0 |
| 20260505223011 | 57 | 55 | 2.0 | 7.0 | 0.00 | 0.01 | 0.00 | 37 | 1006.9 |
| 20260505221510 | 57 | 71 | 2.0 | 11.0 | 0.00 | 0.01 | 0.00 | 37 | 1006.9 |
| 20260505220023 | 58 | 341 | 1.0 | 4.0 | 0.00 | 0.01 | 0.00 | 35 | 1007.0 |
| 20260505214513 | 58 | 344 | 3.0 | 10.0 | 0.00 | 0.01 | 0.00 | 34 | 1006.8 |
| 20260505213009 | 58 | 351 | 1.0 | 10.0 | 0.00 | 0.01 | 0.00 | 35 | 1006.8 |
| 20260505211508 | 58 | 336 | 1.0 | 8.0 | 0.00 | 0.01 | 0.00 | 36 | 1006.8 |
| 20260505210009 | 58 | 349 | 0.0 | 6.0 | 0.00 | 0.01 | 0.00 | 34 | 1006.7 |
| 20260505204515 | 58 | 13 | 1.0 | 8.0 | 0.00 | 0.01 | 0.00 | 33 | 1006.9 |
| 20260505203007 | 58 | 11 | 1.0 | 5.0 | 0.00 | 0.01 | 0.00 | 34 | 1007.0 |
| 20260505201506 | 58 | 5 | 3.0 | 10.0 | 0.00 | 0.01 | 0.00 | 33 | 1007.0 |
| 20260505200008 | 58 | 59 | 2.0 | 7.0 | 0.00 | 0.01 | 0.00 | 34 | 1007.1 |
| 20260505194507 | 58 | 5 | 4.0 | 10.0 | 0.00 | 0.01 | 0.00 | 32 | 1007.1 |
| 20260505193019 | 59 | 89 | 2.0 | 9.0 | 0.00 | 0.01 | 0.00 | 32 | 1007.2 |
| 20260505191504 | 59 | 94 | 1.0 | 7.0 | 0.00 | 0.01 | 0.00 | 32 | 1007.2 |
| 20260505190003 | 59 | 244 | 2.0 | 6.0 | 0.00 | 0.01 | 0.00 | 34 | 1007.2 |
| 20260505184501 | 58 | 309 | 2.0 | 7.0 | 0.00 | 0.01 | 0.00 | 35 | 1007.2 |
| 20260505183003 | 58 | 87 | 2.0 | 8.0 | 0.00 | 0.01 | 0.00 | 36 | 1007.2 |
| 20260505181603 | 58 | 110 | 6.0 | 15.0 | 0.00 | 0.01 | 0.00 | 35 | 1006.9 |
| 20260505180058 | 58 | 78 | 4.0 | 11.0 | 0.00 | 0.01 | 0.00 | 38 | 1006.8 |
| 20260505174557 | 57 | 306 | 1.0 | 6.0 | 0.00 | 0.01 | 0.00 | 37 | 1006.8 |
| 20260505173056 | 57 | 346 | 2.0 | 8.0 | 0.00 | 0.01 | 0.00 | 38 | 1006.9 |
| 20260505171555 | 56 | 36 | 3.0 | 9.0 | 0.00 | 0.01 | 0.00 | 39 | 1006.8 |
| 20260505170104 | 56 | 313 | 2.0 | 9.0 | 0.00 | 0.01 | 0.00 | 40 | 1007.1 |
| 20260505164553 | 56 | 13 | 3.0 | 8.0 | 0.00 | 0.01 | 0.00 | 42 | 1006.9 |
| 20260505163058 | 55 | 65 | 3.0 | 8.0 | 0.00 | 0.01 | 0.00 | 42 | 1006.8 |
| 20260505161552 | 54 | 57 | 1.0 | 9.0 | 0.00 | 0.01 | 0.00 | 43 | 1007.0 |
| 20260505153105 | 53 | 14 | 2.0 | 9.0 | 0.00 | 0.01 | 0.00 | 45 | 1006.7 |
| 20260505151551 | 53 | 32 | 2.0 | 7.0 | 0.00 | 0.01 | 0.00 | 44 | 1006.8 |
| 20260505150109 | 53 | 40 | 1.0 | 8.0 | 0.00 | 0.01 | 0.00 | 44 | 1006.8 |
| 20260505124539 | 50 | 54 | 3.0 | 7.0 | 0.00 | 0.01 | 0.00 | 49 | 1006.6 |
| 20260505123100 | 50 | 22 | 1.0 | 8.0 | 0.00 | 0.01 | 0.00 | 53 | 1007.0 |
| 20260505121539 | 50 | 58 | 0.0 | 4.0 | 0.00 | 0.01 | 0.00 | 50 | 1006.7 |
| 20260505120046 | 50 | 17 | 1.0 | 8.0 | 0.00 | 0.01 | 0.00 | 49 | 1006.9 |
| 20260505114545 | 50 | 34 | 2.0 | 7.0 | 0.00 | 0.01 | 0.00 | 51 | 1006.3 |
| 20260505113030 | 50 | 67 | 1.0 | 10.0 | 0.00 | 0.01 | 0.00 | 49 | 1005.4 |
| 20260505111528 | 50 | 59 | 3.0 | 7.0 | 0.00 | 0.01 | 0.00 | 51 | 1004.9 |
| 20260505101519 | 51 | 44 | 4.0 | 9.0 | 0.00 | 0.01 | 0.00 | 55 | 1004.3 |
| 20260505100025 | 52 | 18 | 6.0 | 14.0 | 0.00 | 0.01 | 0.00 | 54 | 1004.3 |
| 20260505094514 | 52 | 57 | 0.0 | 7.0 | 0.00 | 0.01 | 0.00 | 55 | 1004.4 |
| 20260505093012 | 53 | 47 | 4.0 | 12.0 | 0.00 | 0.01 | 0.00 | 53 | 1004.0 |
| 20260505091508 | 53 | 51 | 7.0 | 14.0 | 0.00 | 0.01 | 0.00 | 53 | 1003.8 |
| 20260505090009 | 54 | 65 | 6.0 | 12.0 | 0.00 | 0.01 | 0.00 | 51 | 1003.5 |
| 20260505084502 | 55 | 63 | 4.0 | 13.0 | 0.00 | 0.01 | 0.00 | 50 | 1002.9 |
| 20260505083109 | 55 | 15 | 4.0 | 10.0 | 0.00 | 0.01 | 0.00 | 50 | 1002.8 |
| 20260505081555 | 56 | 16 | 2.0 | 12.0 | 0.00 | 0.01 | 0.00 | 50 | 1002.3 |
| 20260505080055 | 57 | 37 | 3.0 | 15.0 | 0.00 | 0.01 | 0.00 | 49 | 1001.9 |
| 20260505074547 | 58 | 45 | 4.0 | 14.0 | 0.00 | 0.01 | 0.00 | 47 | 1001.7 |
| 20260505073054 | 58 | 40 | 5.0 | 19.0 | 0.00 | 0.01 | 0.00 | 45 | 1001.5 |
| 20260505071540 | 59 | 11 | 4.0 | 14.0 | 0.00 | 0.01 | 0.00 | 44 | 1001.1 |
| 20260505070044 | 60 | 30 | 7.0 | 18.0 | 0.00 | 0.01 | 0.00 | 43 | 1000.7 |
| 20260505064533 | 60 | 44 | 2.0 | 7.0 | 0.00 | 0.01 | 0.00 | 42 | 1000.8 |
| 20260505063034 | 61 | 37 | 7.0 | 15.0 | 0.00 | 0.01 | 0.00 | 41 | 1000.8 |
| 20260505061529 | 61 | 40 | 1.0 | 8.0 | 0.00 | 0.01 | 0.00 | 40 | 1000.3 |
| 20260505060027 | 61 | 101 | 3.0 | 10.0 | 0.00 | 0.01 | 0.00 | 40 | 1000.3 |
| 20260505054524 | 62 | 58 | 1.0 | 10.0 | 0.00 | 0.01 | 0.00 | 40 | 1000.0 |
| 20260505053022 | 62 | 48 | 2.0 | 10.0 | 0.00 | 0.01 | 0.00 | 39 | 999.8 |
| 20260505051521 | 63 | 58 | 1.0 | 12.0 | 0.00 | 0.01 | 0.00 | 39 | 999.5 |
| 20260505041521 | 63 | 309 | 1.0 | 5.0 | 0.00 | 0.01 | 0.01 | 51 | 998.9 |
| 20260505040011 | 63 | 251 | 0.0 | 1.0 | 0.00 | 0.01 | 0.01 | 63 | 998.6 |
| 20260505034510 | 64 | 251 | 0.0 | 2.0 | 0.00 | 0.01 | 0.01 | 67 | 998.2 |
| 20260505033010 | 64 | 251 | 0.0 | 2.0 | 0.00 | 0.01 | 0.01 | 67 | 998.0 |
| 20260505031509 | 65 | 250 | 0.0 | 3.0 | 0.00 | 0.01 | 0.01 | 67 | 998.0 |
| 20260505030009 | 65 | 71 | 0.0 | 4.0 | 0.00 | 0.01 | 0.01 | 68 | 998.0 |
| 20260505024508 | 65 | 313 | 1.0 | 7.0 | 0.00 | 0.01 | 0.01 | 68 | 997.8 |
| 20260505023008 | 66 | 111 | 0.0 | 8.0 | 0.00 | 0.01 | 0.01 | 68 | 997.4 |
| 20260505021508 | 66 | 139 | 1.0 | 9.0 | 0.00 | 0.01 | 0.01 | 69 | 996.8 |
| 20260505020006 | 66 | 238 | 2.0 | 9.0 | 0.00 | 0.01 | 0.01 | 69 | 996.6 |
| 20260505014506 | 66 | 253 | 3.0 | 8.0 | 0.00 | 0.01 | 0.01 | 68 | 996.3 |
| 20260505013006 | 67 | 249 | 4.0 | 13.0 | 0.00 | 0.01 | 0.01 | 66 | 996.1 |
| 20260505011508 | 67 | 225 | 1.0 | 7.0 | 0.00 | 0.01 | 0.01 | 63 | 996.0 |
| 20260505010004 | 67 | 250 | 4.0 | 9.0 | 0.00 | 0.01 | 0.01 | 62 | 996.0 |
| 20260505004504 | 68 | 212 | 1.0 | 7.0 | 0.00 | 0.01 | 0.01 | 62 | 995.4 |
| 20260505003003 | 69 | 215 | 4.0 | 7.0 | 0.00 | 0.01 | 0.01 | 59 | 995.1 |
| 20260505001501 | 69 | 232 | 2.0 | 7.0 | 0.00 | 0.01 | 0.01 | 59 | 995.0 |
| 20260505000002 | 70 | 232 | 5.0 | 10.0 | 0.00 | 0.01 | 0.01 | 56 | 994.7 |